Time,TemperatureF,DewpointF,PressureIn,WindDirection,WindDirectionDegrees,WindSpeedMPH,WindSpeedGustMPH,Humidity,HourlyPrecipIn,Conditions,Clouds,dailyrainin,SoftwareType,DateUTC
2013-05-27 00:00:00,60.3,50.9,30.18,SE,146,0.0,1.0,71,0.00,,---,0.00,VWS V14.00,2013-05-27 04:00:00,
2013-05-27 00:30:00,60.7,50.5,30.17,SE,144,0.0,0.0,69,0.00,,---,0.00,VWS V14.00,2013-05-27 04:30:00,
2013-05-27 01:00:00,60.5,50.3,30.16,SE,146,0.0,0.0,69,0.00,,---,0.00,VWS V14.00,2013-05-27 05:00:00,
2013-05-27 01:30:00,60.4,48.2,30.14,SE,146,0.0,2.0,64,0.00,,---,0.00,VWS V14.00,2013-05-27 05:30:00,
2013-05-27 02:00:00,60.5,47.0,30.15,SE,145,0.0,0.0,61,0.00,,---,0.00,VWS V14.00,2013-05-27 06:00:00,
2013-05-27 02:30:00,60.6,45.8,30.15,SSE,147,0.0,2.0,58,0.00,,---,0.00,VWS V14.00,2013-05-27 06:30:00,
2013-05-27 03:00:00,60.0,44.7,30.14,SSE,151,1.0,3.0,57,0.00,,---,0.00,VWS V14.00,2013-05-27 07:00:00,
2013-05-27 03:30:00,58.6,44.3,30.14,SE,144,1.0,4.0,59,0.00,,---,0.00,VWS V14.00,2013-05-27 07:30:00,
2013-05-27 04:00:00,56.3,44.7,30.15,SE,143,1.0,3.0,65,0.00,,---,0.00,VWS V14.00,2013-05-27 08:00:00,
2013-05-27 04:30:00,54.4,45.9,30.15,SSE,150,1.0,3.0,73,0.00,,---,0.00,VWS V14.00,2013-05-27 08:30:00,
2013-05-27 05:00:00,51.3,47.0,30.15,SE,143,1.0,3.0,85,0.00,,---,0.00,VWS V14.00,2013-05-27 09:00:00,
2013-05-27 05:30:00,50.3,47.2,30.14,SE,132,2.0,6.0,89,0.00,,---,0.00,VWS V14.00,2013-05-27 09:30:00,
2013-05-27 06:00:00,50.0,47.5,30.13,SE,142,4.0,7.0,91,0.00,,---,0.00,VWS V14.00,2013-05-27 10:00:00,
2013-05-27 06:30:00,49.9,47.7,30.14,ESE,113,1.0,5.0,92,0.00,,---,0.00,VWS V14.00,2013-05-27 10:30:00,
2013-05-27 07:00:00,50.2,48.0,30.14,ESE,113,2.0,5.0,92,0.00,,---,0.00,VWS V14.00,2013-05-27 11:00:00,
2013-05-27 07:30:00,50.4,48.5,30.13,ESE,115,3.0,5.0,93,0.00,,---,0.00,VWS V14.00,2013-05-27 11:30:00,
2013-05-27 08:00:00,50.2,48.3,30.12,ESE,115,6.0,9.0,93,0.00,,---,0.00,VWS V14.00,2013-05-27 12:00:00,
2013-05-27 08:30:00,49.9,48.2,30.12,ESE,111,6.0,7.0,94,0.00,,---,0.00,VWS V14.00,2013-05-27 12:30:00,
2013-05-27 09:00:00,49.9,48.5,30.12,ESE,122,1.0,8.0,95,0.00,,---,0.00,VWS V14.00,2013-05-27 13:00:00,
2013-05-27 09:30:00,50.2,48.8,30.11,ESE,106,3.0,7.0,95,0.00,,---,0.00,VWS V14.00,2013-05-27 13:30:00,
2013-05-27 10:00:00,50.8,49.4,30.09,ESE,108,2.0,9.0,95,0.00,,---,0.00,VWS V14.00,2013-05-27 14:00:00,
2013-05-27 10:30:00,51.9,50.5,30.08,ESE,122,2.0,9.0,95,0.00,,---,0.00,VWS V14.00,2013-05-27 14:30:00,
2013-05-27 11:00:00,52.9,50.9,30.06,SE,138,1.0,8.0,93,0.00,,---,0.00,VWS V14.00,2013-05-27 15:00:00,
2013-05-27 11:30:00,54.6,52.0,30.06,ESE,110,4.0,13.0,91,0.00,,---,0.00,VWS V14.00,2013-05-27 15:30:00,
2013-05-27 12:00:00,54.7,52.1,30.06,SE,138,1.0,10.0,91,0.00,,---,0.00,VWS V14.00,2013-05-27 16:00:00,
2013-05-27 12:30:00,54.5,52.5,30.08,SE,138,3.0,8.0,93,0.03,,---,0.03,VWS V14.00,2013-05-27 16:30:00,
2013-05-27 13:00:00,54.4,53.0,30.05,South,169,3.0,4.0,95,0.15,,---,0.15,VWS V14.00,2013-05-27 17:00:00,
2013-05-27 13:30:00,54.7,53.3,30.03,ESE,113,2.0,7.0,95,0.18,,---,0.18,VWS V14.00,2013-05-27 17:30:00,
2013-05-27 14:00:00,54.9,53.5,30.02,SE,133,3.0,7.0,95,0.15,,---,0.18,VWS V14.00,2013-05-27 18:00:00,
2013-05-27 14:30:00,56.6,54.9,30.00,ESE,105,2.0,6.0,94,0.03,,---,0.18,VWS V14.00,2013-05-27 18:30:00,
2013-05-27 15:00:00,57.6,55.6,30.00,SSE,159,4.0,7.0,93,0.00,,---,0.18,VWS V14.00,2013-05-27 19:00:00,
2013-05-27 15:30:00,57.8,55.8,29.99,SE,146,2.0,6.0,93,0.00,,---,0.18,VWS V14.00,2013-05-27 19:30:00,
2013-05-27 16:00:00,57.8,55.8,29.97,ENE,78,2.0,4.0,93,0.00,,---,0.18,VWS V14.00,2013-05-27 20:00:00,
2013-05-27 16:30:00,58.7,57.0,29.95,WSW,238,0.0,6.0,94,0.00,,---,0.18,VWS V14.00,2013-05-27 20:30:00,
2013-05-27 17:00:00,59.3,57.6,29.94,SE,130,1.0,5.0,94,0.00,,---,0.18,VWS V14.00,2013-05-27 21:00:00,
2013-05-27 17:30:00,60.2,58.5,29.93,SSE,152,3.0,6.0,94,0.00,,---,0.18,VWS V14.00,2013-05-27 21:30:00,
2013-05-27 18:00:00,60.8,58.8,29.92,East,101,2.0,5.0,93,0.00,,---,0.18,VWS V14.00,2013-05-27 22:00:00,
2013-05-27 18:30:00,61.0,58.4,29.91,ESE,121,5.0,6.0,91,0.00,,---,0.18,VWS V14.00,2013-05-27 22:30:00,
2013-05-27 19:00:00,60.1,58.1,29.92,NE,44,3.0,7.0,93,0.00,,---,0.18,VWS V14.00,2013-05-27 23:00:00,
2013-05-27 19:30:00,59.5,57.5,29.92,ENE,70,1.0,5.0,93,0.00,,---,0.18,VWS V14.00,2013-05-27 23:30:00,
2013-05-27 20:00:00,58.8,56.8,29.90,ESE,110,2.0,3.0,93,0.00,,---,0.18,VWS V14.00,2013-05-28 00:00:00,
2013-05-27 20:30:00,58.2,56.2,29.91,ESE,105,1.0,5.0,93,0.00,,---,0.18,VWS V14.00,2013-05-28 00:30:00,
2013-05-27 21:00:00,57.7,56.3,29.91,ESE,118,1.0,5.0,95,0.18,,---,0.36,VWS V14.00,2013-05-28 01:00:00,
2013-05-27 21:30:00,57.3,56.2,29.90,SSW,203,0.0,4.0,96,0.24,,---,0.42,VWS V14.00,2013-05-28 01:30:00,
2013-05-27 22:00:00,57.4,56.6,29.88,ESE,103,2.0,3.0,97,0.26,,---,0.44,VWS V14.00,2013-05-28 02:00:00,
2013-05-27 22:30:00,57.9,57.1,29.89,SE,131,1.0,4.0,97,0.09,,---,0.45,VWS V14.00,2013-05-28 02:30:00,
2013-05-27 23:00:00,58.5,57.9,29.90,North,359,0.0,5.0,98,0.03,,---,0.45,VWS V14.00,2013-05-28 03:00:00,
2013-05-27 23:30:00,58.5,57.7,29.90,ESE,121,1.0,2.0,97,0.01,,---,0.45,VWS V14.00,2013-05-28 03:30:00,